Hourly Data Report for September 15, 2017

All times are specified in Local Standard Time (LST). Add 1 hour to adjust for Daylight Saving Time where and when it is observed.

ARCTIC BAY CS
NUNAVUT

72°59'34.000" N
85°00'44.000" W
10.00 m
2400404
71592
XAT

Download Data

Hourly Data (September 2017)
Hourly Data Report for September 15, 2017
Temp Definition
°C
Dew Point Temp Definition
°C
Rel Hum Definition
%
Wind Dir Definition
10's deg

Wind Spd Definition
km/h
Visibility Definition
km
Stn Press Definition
kPa
Hmdx Definition


Wind Chill Definition


Weather Definition


TIME
00:00 -0.3 -2.2 87 12 5   101.03   -2 LegendNANA
01:00 -0.4 -2.3 87 11 6   101.00   -2 LegendNANA
02:00 -0.7 -2.7 86 9 9   100.96   -4 LegendNANA
03:00 -0.3 -1.9 89 11 7   100.92   -3 LegendNANA
04:00 -1.1 -2.4 91 5 2   100.92   -2 LegendNANA
05:00 -1.2 -2.4 91 5 6   100.90   -3 LegendNANA
06:00 -1.4 -3.2 88 7 12   100.89   -5 LegendNANA
07:00 -1.7 -3.7 86 7 11   100.87   -6 LegendNANA
08:00 -0.6 -2.8 85 5 6   100.87   -3 LegendNANA
09:00 0.4 -2.0 84 5 1   100.86     LegendNANA
10:00 0.4 -1.5 87 30 4   100.84     LegendNANA
11:00 0.7 -1.3 86 28 2   100.81     LegendNANA
12:00 1.2 -1.5 83 22 5   100.80     LegendNANA
13:00 0.9 -1.3 85 31 8   100.82     LegendNANA
14:00 0.7 -1.3 86 29 18   100.82     LegendNANA
15:00 0.7 -0.8 90 29 21   100.82     LegendNANA
16:00 0.2 -1.1 91 30 24   100.84     LegendNANA
17:00 0.2 -1.0 91 32 15   100.84     LegendNANA
18:00 0.1 -1.0 92 32 15   100.86     LegendNANA
19:00 0.1 -1.2 91 33 11   100.87     LegendNANA
20:00 0.5 -0.6 92 32 14   100.84     LegendNANA
21:00 0.1 -1.0 93 36 8   100.83     LegendNANA
22:00 0.4 -0.8 91 33 7   100.83     LegendNANA
23:00 0.4 -1.2 89 11 6   100.80     LegendNANA

Notes on Data Quality.

Legend

  • E = Estimated
  • M = Missing
  • NA = Not Available
  • ‡ = Partner data that is not subject to review by the National Climate Archives
Date modified: